period_start,C,m1,H,J0,J1,J2,J3,J4,J5,JA,JB,JC,JD,JJ,JK,JN,#
2017-01-10 00:01:52,0.09,7.03,0.00,22.09,26.24,29.73,14.62,49.47,1018.58,2030.12,1757.73,1735.22,1945.50,599.87,598.91,33.95,0000 0000 0000 0000 000000
2017-01-10 00:06:53,0.05,7.03,0.00,22.08,26.25,29.60,14.61,49.43,1018.58,2030.03,1756.82,1734.90,1944.88,599.90,598.97,34.00,0000 0000 0000 0000 000000
2017-01-10 00:11:55,0.12,7.04,0.00,22.09,26.25,29.64,14.66,49.42,1018.60,2030.03,1755.95,1734.09,1944.06,599.89,598.92,34.05,0000 0000 0000 0000 000000
2017-01-10 00:16:56,0.09,7.04,0.00,22.08,26.25,29.65,14.65,49.49,1018.58,2030.02,1755.06,1733.80,1943.47,599.97,599.15,34.10,0000 0000 0000 0000 000000
2017-01-10 00:21:58,0.10,7.05,0.00,22.07,26.25,29.72,14.66,49.53,1018.66,2030.01,1754.16,1733.06,1942.86,599.96,599.04,34.15,0000 0000 0000 0000 000000
2017-01-10 00:26:59,0.10,7.05,0.00,22.08,26.27,29.70,14.61,49.51,1018.72,2030.03,1753.27,1732.75,1942.07,600.25,599.37,34.20,0000 0000 0000 0000 000000
2017-01-10 00:32:00,0.10,7.06,0.00,22.08,26.27,29.70,14.62,49.48,1018.91,2030.02,1752.46,1732.05,1941.54,599.91,599.09,34.25,0000 0000 0000 0000 000000
2017-01-10 00:37:01,0.08,7.06,0.00,22.09,26.27,29.43,14.61,49.51,1018.78,2030.00,1751.63,1731.67,1940.98,600.07,599.16,34.30,0000 0000 0000 0000 000000
2017-01-10 00:42:03,0.08,7.07,0.00,22.08,26.27,29.45,14.62,49.38,1018.80,2030.01,1750.87,1731.02,1940.18,600.10,599.32,34.35,0000 0000 0000 0000 000000
2017-01-10 00:47:04,0.07,7.07,0.00,22.06,26.27,29.65,14.60,49.50,1018.70,2030.00,1750.03,1730.77,1939.79,600.07,599.20,34.40,0000 0000 0000 0000 000000
2017-01-10 00:52:05,0.11,7.08,0.00,22.07,26.28,29.72,14.57,49.28,1018.69,2030.01,1749.16,1730.05,1939.04,600.06,599.12,34.45,0000 0000 0000 0000 000000
2017-01-10 00:57:07,0.09,7.08,0.00,22.07,26.29,29.73,14.64,49.42,1018.82,2030.00,1748.34,1729.74,1938.50,600.10,599.16,34.50,0000 0000 0000 0000 000000
2017-01-10 01:02:08,0.09,7.09,0.00,22.08,26.29,29.67,14.68,49.41,1019.04,2030.00,1747.48,1729.04,1937.90,599.98,599.20,34.55,0000 0000 0000 0000 000000
2017-01-10 01:07:10,0.11,7.09,0.00,22.08,26.30,29.72,14.67,49.46,1019.05,2030.00,1746.64,1728.67,1937.09,600.00,599.40,34.60,0000 0000 0000 0000 000000
2017-01-10 01:12:11,0.08,7.10,0.00,22.07,26.30,29.64,14.63,49.41,1019.06,2030.00,1745.75,1728.03,1936.52,600.09,599.42,34.65,0000 0000 0000 0000 000000
2017-01-10 01:17:12,0.06,7.10,0.00,22.07,26.30,29.64,14.64,49.48,1019.06,2030.00,1744.94,1727.77,1935.99,599.94,599.40,34.70,0000 0000 0000 0000 000000
2017-01-10 01:22:13,0.11,7.11,0.00,22.09,26.30,29.72,14.68,49.48,1019.06,2030.00,1744.08,1727.05,1935.29,600.45,599.70,34.75,0000 0000 0000 0000 000000
2017-01-10 01:27:14,0.07,7.11,0.00,22.07,26.30,29.69,14.71,49.44,1019.06,2030.00,1743.27,1726.94,1934.78,600.14,599.49,34.81,0000 0000 0000 0000 000000
2017-01-10 01:32:16,0.12,7.12,0.00,22.07,26.30,29.70,14.68,49.44,1019.06,2030.00,1742.36,1726.13,1934.02,600.11,599.46,34.86,0000 0000 0000 0000 000000
2017-01-10 01:37:17,0.11,7.12,0.00,22.06,26.30,29.73,14.67,49.34,1019.06,2030.00,1741.42,1725.73,1933.26,600.00,599.28,34.91,0000 0000 0000 0000 000000
2017-01-10 01:42:19,0.09,7.12,0.00,22.08,26.30,29.70,14.70,49.48,1019.06,2030.00,1740.52,1725.03,1932.75,600.25,599.51,34.96,0000 0000 0000 0000 000000
2017-01-10 01:47:20,0.08,7.13,0.00,22.06,26.30,29.57,14.68,49.44,1019.06,2030.00,1739.74,1724.73,1932.03,600.02,599.33,35.01,0000 0000 0000 0000 000000
2017-01-10 01:52:22,0.09,7.14,0.00,22.07,26.30,29.64,14.70,49.51,1019.06,2030.00,1738.85,1724.02,1931.36,600.25,599.69,35.06,0000 0000 0000 0000 000000
2017-01-10 01:57:23,0.10,7.14,0.00,22.07,26.30,29.70,14.67,49.46,1019.06,2030.00,1737.96,1723.59,1930.85,599.95,599.35,35.11,0000 0000 0000 0000 000000
2017-01-10 02:02:24,0.09,7.15,0.00,22.06,26.30,29.54,14.61,49.31,1019.06,2030.00,1737.08,1723.02,1930.07,600.00,599.46,35.16,0000 0000 0000 0000 000000
2017-01-10 02:07:25,0.12,7.15,0.00,22.08,26.30,29.59,14.66,49.42,1019.06,2030.00,1736.26,1722.53,1929.50,600.00,599.32,35.21,0000 0000 0000 0000 000000
2017-01-10 02:12:27,0.06,7.15,0.00,22.07,26.30,29.66,14.65,49.48,1019.06,2030.00,1735.36,1722.00,1928.94,600.27,599.39,35.26,0000 0000 0000 0000 000000
2017-01-10 02:17:28,0.13,7.16,0.00,22.06,26.30,29.64,14.66,49.45,1019.06,2030.00,1734.45,1721.38,1928.11,600.25,599.56,35.31,0000 0000 0000 0000 000000
2017-01-10 02:22:30,0.07,7.16,0.00,22.05,26.30,29.61,14.63,49.38,1019.06,2030.00,1733.66,1720.99,1927.55,600.06,599.42,35.36,0000 0000 0000 0000 000000
2017-01-10 02:27:31,0.08,7.17,0.00,22.04,26.30,29.58,14.65,49.49,1019.03,2030.00,1732.89,1720.30,1926.97,600.02,599.49,35.41,0000 0000 0000 0000 000000
2017-01-10 02:32:32,0.08,7.17,0.00,22.06,26.30,29.58,14.64,49.40,1018.92,2030.00,1731.98,1719.97,1926.18,600.19,599.36,35.46,0000 0000 0000 0000 000000
2017-01-10 02:37:33,0.13,7.18,0.00,22.06,26.30,29.71,14.64,49.45,1018.78,2030.00,1731.06,1719.18,1925.52,599.97,599.20,35.51,0000 0000 0000 0000 000000
2017-01-10 02:42:35,0.07,7.19,0.00,22.05,26.30,29.59,14.67,49.33,1018.90,2030.00,1730.15,1718.84,1924.96,599.87,599.16,35.56,0000 0000 0000 0000 000000
2017-01-10 02:47:36,0.13,7.19,0.00,22.04,26.30,29.62,14.66,49.38,1018.96,2030.00,1729.24,1718.08,1924.12,600.15,599.47,35.61,0000 0000 0000 0000 000000
2017-01-10 02:52:37,0.12,7.19,0.00,22.02,26.30,29.58,14.72,49.64,1018.86,2030.00,1728.26,1717.62,1923.54,600.39,599.72,35.66,0000 0000 0000 0000 000000
2017-01-10 02:57:39,0.09,7.20,0.00,22.02,26.30,29.60,14.68,49.52,1018.60,2030.00,1727.32,1717.01,1922.77,600.33,599.50,35.71,0000 0000 0000 0000 000000
2017-01-10 03:02:40,0.13,7.21,0.00,22.02,26.30,29.61,14.60,49.43,1018.89,2030.00,1726.40,1716.28,1922.01,599.73,599.09,35.77,0000 0000 0000 0000 000000
2017-01-10 03:07:42,0.09,7.21,0.00,22.01,26.30,29.55,14.68,49.45,1018.95,2030.00,1725.49,1715.83,1921.15,600.04,599.52,35.82,0000 0000 0000 0000 000000
2017-01-10 03:12:43,0.12,7.22,0.00,22.00,26.30,29.58,14.63,49.60,1018.92,2029.99,1724.56,1715.05,1920.56,600.08,599.55,35.87,0000 0000 0000 0000 000000
2017-01-10 03:17:45,0.10,7.22,0.00,21.96,26.30,29.55,14.76,49.66,1018.98,2029.99,1723.63,1714.54,1919.96,600.58,600.11,35.92,0000 0000 0000 0000 000000
2017-01-10 03:22:46,0.09,7.23,0.00,21.96,26.30,29.53,14.65,49.67,1018.84,2029.99,1722.67,1713.98,1919.16,599.88,599.34,35.97,0000 0000 0000 0000 000000
2017-01-10 03:27:48,0.14,7.24,0.00,21.96,26.30,29.56,14.60,49.51,1018.72,2029.99,1721.66,1713.23,1918.44,600.15,599.53,36.02,0000 0000 0000 0000 000000
2017-01-10 03:32:49,0.08,7.24,0.00,21.96,26.29,29.55,14.70,49.51,1018.98,2029.99,1720.68,1712.83,1917.81,600.32,599.87,36.07,0000 0000 0000 0000 000000
2017-01-10 03:37:50,0.12,7.25,0.00,21.96,26.28,29.53,14.61,49.52,1018.94,2029.99,1719.68,1712.05,1916.99,599.95,599.40,36.12,0000 0000 0000 0000 000000
2017-01-10 03:42:52,0.13,7.25,0.00,21.94,26.27,29.51,14.61,49.62,1018.84,2029.99,1718.70,1711.48,1916.14,600.08,599.51,36.17,0000 0000 0000 0000 000000
2017-01-10 03:47:53,0.09,7.26,0.00,21.93,26.27,29.53,14.65,49.48,1018.89,2030.00,1717.72,1710.98,1915.48,599.63,599.15,36.22,0000 0000 0000 0000 000000
2017-01-10 03:52:54,0.11,7.27,0.00,21.92,26.27,29.62,14.62,49.52,1019.01,2030.00,1716.79,1710.19,1914.82,599.86,599.50,36.27,0000 0000 0000 0000 000000
2017-01-10 03:57:55,0.09,7.27,0.00,21.90,26.27,29.59,14.72,49.50,1019.04,2030.01,1715.83,1709.77,1914.04,600.52,600.20,36.32,0000 0000 0000 0000 000000
2017-01-10 04:02:56,0.12,7.28,0.00,21.90,26.27,29.55,14.72,49.58,1019.01,2030.01,1714.85,1709.04,1913.25,599.90,599.60,36.37,0000 0000 0000 0000 000000
2017-01-10 04:07:58,0.14,7.28,0.00,21.89,26.25,29.57,14.65,49.62,1019.00,2030.00,1713.80,1708.42,1912.49,600.01,599.79,36.42,0000 0000 0000 0000 000000
2017-01-10 04:12:59,0.09,7.29,0.00,21.88,26.25,29.54,14.72,49.75,1019.05,2030.02,1712.80,1707.87,1911.82,599.91,599.62,36.47,0000 0000 0000 0000 000000
2017-01-10 04:18:00,0.11,7.30,0.00,21.86,26.25,29.44,14.74,49.63,1019.07,2030.01,1711.81,1707.06,1911.01,600.15,599.99,36.52,0000 0000 0000 0000 000000
2017-01-10 04:23:01,0.14,7.30,0.00,21.85,26.25,29.50,14.63,49.56,1019.07,2030.00,1710.76,1706.51,1910.15,599.81,599.60,36.57,0000 0000 0000 0000 000000
2017-01-10 04:28:02,0.10,7.31,0.00,21.86,26.23,29.53,14.57,49.51,1019.09,2030.01,1709.71,1705.94,1909.44,599.93,599.82,36.63,0000 0000 0000 0000 000000
2017-01-10 04:33:04,0.12,7.31,0.00,21.86,26.22,29.58,14.68,49.48,1019.11,2030.02,1708.70,1705.15,1908.79,599.81,599.62,36.68,0000 0000 0000 0000 000000
2017-01-10 04:38:05,0.10,7.32,0.00,21.85,26.22,29.52,14.69,49.52,1019.08,2030.02,1707.70,1704.73,1908.01,600.04,599.84,36.73,0000 0000 0000 0000 000000
2017-01-10 04:43:06,0.11,7.33,0.00,21.85,26.22,29.52,14.68,49.59,1019.09,2030.05,1706.73,1704.03,1907.21,600.05,599.89,36.78,0000 0000 0000 0000 000000
2017-01-10 04:48:08,0.15,7.33,0.00,21.84,26.21,29.54,14.69,49.61,1019.09,2030.05,1705.70,1703.36,1906.49,600.22,600.08,36.83,0000 0000 0000 0000 000000
2017-01-10 04:53:09,0.10,7.34,0.00,21.84,26.20,29.47,14.65,49.58,1019.11,2030.10,1704.62,1702.82,1905.78,599.71,599.66,36.88,0000 0000 0000 0000 000000
2017-01-10 04:58:11,0.11,7.34,0.00,21.84,26.20,29.53,14.62,49.68,1019.17,2030.12,1703.59,1702.05,1905.02,599.84,599.73,36.93,0000 0000 0000 0000 000000
2017-01-10 05:03:12,0.14,7.35,0.00,21.83,26.20,29.53,14.62,49.63,1019.16,2030.11,1702.54,1701.42,1904.16,599.73,599.66,36.98,0000 0000 0000 0000 000000
2017-01-10 05:08:13,0.13,7.36,0.00,21.83,26.19,29.52,14.67,49.70,1019.26,2030.31,1701.44,1700.92,1903.47,599.72,599.62,37.03,0000 0000 0000 0000 000000
2017-01-10 05:13:14,0.14,7.37,0.00,21.83,26.17,29.50,14.73,49.70,1019.52,2030.47,1700.46,1700.10,1902.77,600.30,600.38,37.08,0000 0000 0000 0000 000000
2017-01-10 05:18:15,0.12,7.37,0.00,21.83,26.17,29.46,14.66,49.75,1019.42,2030.42,1699.36,1699.59,1901.99,599.92,600.08,37.13,0000 0000 0000 0000 000000
2017-01-10 05:23:17,0.12,7.38,0.00,21.81,26.17,29.50,14.71,49.72,1019.12,2030.55,1698.30,1698.97,1901.15,599.98,599.93,37.18,0000 0000 0000 0000 000000
2017-01-10 05:28:18,0.18,7.39,0.00,21.81,26.17,29.46,14.61,49.72,1019.18,2030.72,1697.27,1698.19,1900.41,599.69,599.68,37.23,0000 0000 0000 0000 000000
2017-01-10 05:33:20,0.14,7.39,0.00,21.78,26.15,29.41,14.69,49.63,1019.40,2030.89,1696.04,1697.65,1899.63,599.78,600.06,37.28,0000 0000 0000 0000 000000
2017-01-10 05:38:21,0.11,7.40,0.00,21.77,26.15,29.38,14.66,49.58,1019.52,2030.88,1694.80,1696.96,1898.76,600.06,600.16,37.33,0000 0000 0000 0000 000000
2017-01-10 05:43:22,0.12,7.41,0.00,21.78,26.15,29.45,14.73,49.59,1019.52,2030.78,1693.75,1696.13,1897.96,600.26,600.47,37.38,0000 0000 0000 0000 000000
2017-01-10 05:48:24,0.13,7.41,0.00,21.77,26.14,29.42,14.64,49.49,1019.53,2030.84,1692.74,1695.67,1897.13,599.86,600.08,37.43,0000 0000 0000 0000 000000
2017-01-10 05:53:25,0.13,7.42,0.00,21.78,26.12,29.41,14.66,49.58,1019.55,2030.95,1691.71,1695.02,1896.42,600.10,600.34,37.48,0000 0000 0000 0000 000000
2017-01-10 05:58:27,0.13,7.42,0.00,21.78,26.12,29.33,14.68,49.82,1019.55,2030.95,1690.68,1694.32,1895.77,600.15,600.31,37.53,0000 0000 0000 0000 000000
2017-01-10 06:03:28,0.12,7.43,0.00,21.77,26.12,29.39,14.63,49.86,1019.55,2030.97,1689.56,1693.72,1894.95,599.74,599.96,37.59,0000 0000 0000 0000 000000
2017-01-10 06:08:29,0.12,7.44,0.00,21.79,26.11,29.38,14.63,49.77,1019.55,2030.98,1688.31,1693.01,1894.09,599.78,600.01,37.64,0000 0000 0000 0000 000000
2017-01-10 06:13:30,0.14,7.45,0.00,21.81,26.10,29.31,14.69,49.83,1019.52,2030.99,1687.24,1692.30,1893.31,599.86,600.06,37.69,0000 0000 0000 0000 000000
2017-01-10 06:18:31,0.10,7.45,0.00,21.81,26.10,29.44,14.70,49.74,1019.49,2030.99,1686.17,1691.83,1892.56,599.91,600.03,37.74,0000 0000 0000 0000 000000
2017-01-10 06:23:32,0.13,7.46,0.00,21.82,26.10,29.41,14.70,49.64,1019.37,2030.99,1685.00,1691.05,1891.74,600.38,600.49,37.79,0000 0000 0000 0000 000000
2017-01-10 06:28:34,0.14,7.47,0.00,21.84,26.10,29.33,14.63,49.47,1019.32,2030.99,1683.83,1690.29,1890.91,600.03,599.93,37.84,0000 0000 0000 0000 000000
2017-01-10 06:33:35,0.15,7.47,0.00,21.83,26.10,29.25,14.65,49.73,1019.08,2030.99,1682.59,1689.67,1890.03,600.08,599.91,37.89,0000 0000 0000 0000 000000
2017-01-10 06:38:36,0.11,7.48,0.00,21.85,26.10,29.31,14.63,49.80,1019.11,2030.99,1681.49,1689.01,1889.18,599.77,599.56,37.94,0000 0000 0000 0000 000000
2017-01-10 06:43:38,0.15,7.49,0.00,21.87,26.10,29.32,14.65,49.95,1019.20,2030.99,1680.45,1688.26,1888.44,600.06,599.69,37.99,0000 0000 0000 0000 000000
2017-01-10 06:48:39,0.10,7.49,0.00,21.86,26.10,29.41,14.69,49.90,1019.28,2030.99,1679.40,1687.80,1887.73,599.56,599.46,38.04,0000 0000 0000 0000 000000
2017-01-10 06:53:40,0.13,7.50,0.00,21.86,26.10,29.33,14.68,49.84,1019.30,2030.99,1678.22,1687.03,1886.83,599.48,599.44,38.09,0000 0000 0000 0000 000000
2017-01-10 06:58:41,0.14,7.51,0.00,21.88,26.10,29.41,14.69,49.74,1019.36,2031.00,1677.03,1686.26,1885.98,599.72,599.66,38.14,0000 0000 0000 0000 000000
2017-01-10 07:03:42,0.11,7.51,0.00,21.86,26.10,29.30,14.69,49.74,1019.52,2031.00,1675.95,1685.76,1885.14,599.96,599.96,38.19,0000 0000 0000 0000 000000
2017-01-10 07:08:44,0.14,7.52,0.00,21.85,26.10,29.33,14.70,49.67,1019.55,2031.00,1674.77,1685.02,1884.36,599.86,599.95,38.24,0000 0000 0000 0000 000000
2017-01-10 07:13:45,0.14,7.53,0.00,21.85,26.11,29.42,14.59,49.72,1019.55,2031.00,1673.67,1684.31,1883.57,599.79,599.87,38.29,0000 0000 0000 0000 000000
2017-01-10 07:18:46,0.09,7.53,0.00,21.85,26.11,29.32,14.62,49.69,1019.56,2031.01,1672.65,1683.80,1882.83,599.99,600.06,38.34,0000 0000 0000 0000 000000
2017-01-10 07:23:47,0.13,7.54,0.00,21.84,26.12,29.37,14.64,49.77,1019.64,2031.00,1671.54,1683.02,1881.97,599.72,599.87,38.39,0000 0000 0000 0000 000000
2017-01-10 07:28:48,0.15,7.55,0.00,21.85,26.12,29.29,14.65,49.84,1019.83,2031.00,1670.32,1682.29,1881.08,599.84,600.15,38.44,0000 0000 0000 0000 000000
2017-01-10 07:33:50,0.13,7.55,0.00,21.85,26.12,29.34,14.75,49.82,1019.97,2031.00,1669.06,1681.74,1880.22,600.04,600.41,38.49,0000 0000 0000 0000 000000
2017-01-10 07:38:51,0.14,7.56,0.00,21.84,26.12,29.41,14.67,49.84,1020.03,2031.00,1667.84,1681.02,1879.47,599.98,600.41,38.55,0000 0000 0000 0000 000000
2017-01-10 07:43:52,0.15,7.57,0.00,21.85,26.12,29.36,14.68,49.77,1020.03,2031.00,1666.71,1680.25,1878.58,599.81,600.17,38.60,0000 0000 0000 0000 000000
2017-01-10 07:48:53,0.13,7.57,0.00,21.85,26.12,29.33,14.74,50.03,1020.04,2031.00,1665.58,1679.64,1877.74,600.08,600.34,38.65,0000 0000 0000 0000 000000
2017-01-10 07:53:54,0.11,7.58,0.00,21.89,26.12,29.47,14.62,49.97,1020.04,2031.01,1664.40,1678.99,1876.91,599.98,600.26,38.70,0000 0000 0000 0000 000000
2017-01-10 07:58:56,0.15,7.59,0.00,21.89,26.12,29.41,14.72,49.84,1020.05,2031.00,1663.14,1678.17,1876.04,600.28,600.52,38.75,0000 0000 0000 0000 000000
2017-01-10 08:03:57,0.13,7.60,0.00,21.90,26.12,29.43,14.70,49.70,1020.21,2031.01,1662.02,1677.61,1875.18,600.14,600.67,38.80,0000 0000 0000 0000 000000
2017-01-10 08:08:59,0.13,7.60,0.00,21.91,26.12,29.52,14.75,49.92,1020.45,2031.02,1660.83,1676.95,1874.32,600.31,600.77,38.85,0000 0000 0000 0000 000000
2017-01-10 08:14:00,0.14,7.61,0.00,21.93,26.13,29.52,14.66,49.67,1020.52,2031.00,1659.73,1676.14,1873.55,599.70,600.25,38.90,0000 0000 0000 0000 000000
2017-01-10 08:19:02,0.15,7.62,0.00,21.94,26.14,29.49,14.73,49.86,1020.52,2031.00,1658.45,1675.53,1872.66,599.99,600.45,38.95,0000 0000 0000 0000 000000
2017-01-10 08:24:03,0.13,7.62,0.00,21.94,26.15,29.55,14.65,50.03,1020.55,2031.00,1657.13,1674.80,1871.77,600.07,600.44,39.00,0000 0000 0000 0000 000000
2017-01-10 08:29:04,0.14,7.63,0.00,21.95,26.15,29.57,14.62,49.67,1020.68,2031.00,1655.88,1674.03,1870.87,600.24,600.71,39.05,0000 0000 0000 0000 000000
2017-01-10 08:34:05,0.16,7.64,0.00,21.97,26.15,29.62,14.70,49.74,1020.65,2031.00,1654.64,1673.23,1869.96,599.78,600.27,39.10,0000 0000 0000 0000 000000
2017-01-10 08:39:07,0.14,7.65,0.00,21.99,26.15,29.62,14.68,49.71,1020.58,2031.00,1653.40,1672.60,1869.06,599.92,600.35,39.15,0000 0000 0000 0000 000000
2017-01-10 08:44:08,0.12,7.66,0.00,22.02,26.17,29.66,14.69,49.77,1020.60,2031.00,1652.06,1671.90,1868.18,599.98,600.30,39.20,0000 0000 0000 0000 000000
2017-01-10 08:49:09,0.18,7.66,0.00,22.03,26.17,29.66,14.73,49.83,1020.71,2030.99,1650.68,1671.07,1867.24,600.27,600.58,39.25,0000 0000 0000 0000 000000
2017-01-10 08:54:11,0.16,7.67,0.00,22.05,26.17,29.65,14.83,49.88,1020.74,2030.99,1649.45,1670.30,1866.29,600.58,600.78,39.30,0000 0000 0000 0000 000000
2017-01-10 08:59:12,0.14,7.68,0.00,22.06,26.18,29.69,14.67,49.76,1020.86,2030.99,1648.11,1669.64,1865.41,600.14,600.62,39.36,0000 0000 0000 0000 000000
2017-01-10 09:04:13,0.16,7.69,0.00,22.08,26.20,29.71,14.73,49.96,1020.61,2030.99,1646.64,1668.87,1864.45,599.94,600.26,39.41,0000 0000 0000 0000 000000
2017-01-10 09:09:15,0.15,7.70,0.00,22.12,26.20,29.75,14.73,49.83,1020.49,2030.99,1645.32,1668.05,1863.50,600.01,600.06,39.46,0000 0000 0000 0000 000000
2017-01-10 09:14:16,0.16,7.70,0.00,22.15,26.22,29.76,14.66,49.97,1020.52,2030.98,1643.97,1667.23,1862.54,599.89,600.04,39.51,0000 0000 0000 0000 000000
2017-01-10 09:19:17,0.18,7.71,0.00,22.15,26.22,29.75,14.65,50.02,1020.52,2030.97,1642.63,1666.43,1861.50,600.03,600.01,39.56,0000 0000 0000 0000 000000
2017-01-10 09:24:18,0.14,7.72,0.00,22.18,26.25,29.76,14.67,50.17,1020.33,2030.97,1641.41,1665.69,1860.54,600.08,600.01,39.61,0000 0000 0000 0000 000000
2017-01-10 09:29:20,0.15,7.73,0.00,22.21,26.25,29.80,14.68,50.29,1020.10,2030.96,1639.94,1664.89,1859.52,600.30,600.00,39.66,0000 0000 0000 0000 000000
2017-01-10 09:34:21,0.16,7.74,0.00,22.22,26.27,29.82,14.66,50.08,1020.07,2030.94,1638.53,1664.06,1858.48,599.94,599.58,39.71,0000 0000 0000 0000 000000
2017-01-10 09:39:22,0.17,7.74,0.00,22.21,26.28,29.84,14.66,50.10,1020.14,2030.93,1637.23,1663.25,1857.50,600.08,599.82,39.76,0000 0000 0000 0000 000000
2017-01-10 09:44:24,0.16,7.75,0.00,22.23,26.30,29.86,14.58,49.97,1020.47,2030.90,1635.90,1662.42,1856.49,599.61,599.41,39.81,0000 0000 0000 0000 000000
2017-01-10 09:49:25,0.11,7.76,0.00,22.24,26.31,29.85,14.65,50.13,1020.51,2030.59,1634.69,1661.71,1855.52,599.89,599.74,39.86,0000 0000 0000 0000 000000
2017-01-10 09:54:27,0.10,7.77,0.00,22.24,26.32,29.86,14.67,50.06,1020.42,2030.42,1633.45,1660.98,1854.77,600.22,600.04,39.91,0000 0000 0000 0000 000000
2017-01-10 09:59:28,0.13,7.77,0.00,22.24,26.33,29.88,14.68,50.06,1020.36,2030.13,1632.07,1660.11,1853.85,599.91,599.61,39.96,0000 0000 0000 0000 000000
2017-01-10 10:04:29,0.19,7.78,0.00,22.26,26.35,29.89,14.63,50.01,1020.34,2030.06,1630.65,1659.34,1852.82,600.05,599.78,40.01,0000 0000 0000 0000 000000
2017-01-10 10:09:31,0.15,7.79,0.00,22.26,26.36,29.92,14.66,50.05,1020.27,2030.05,1629.23,1658.56,1851.88,599.94,599.50,40.06,0000 0000 0000 0000 000000
2017-01-10 10:14:32,0.13,7.80,0.00,22.27,26.37,29.92,14.67,50.03,1020.38,2030.02,1627.88,1657.80,1850.93,599.90,599.59,40.11,0000 0000 0000 0000 000000
2017-01-10 10:19:34,0.16,7.80,0.00,22.28,26.38,29.94,14.69,50.05,1020.37,2030.00,1626.63,1657.01,1849.97,600.02,599.74,40.16,0000 0000 0000 0000 000000
2017-01-10 10:24:35,0.16,7.81,0.00,22.27,26.40,29.93,14.61,50.09,1020.52,2030.00,1625.42,1656.18,1849.03,599.77,599.52,40.21,0000 0000 0000 0000 000000
2017-01-10 10:29:36,0.14,7.82,0.00,22.29,26.40,29.95,14.64,50.06,1020.52,2030.00,1624.17,1655.57,1848.10,599.94,599.61,40.27,0000 0000 0000 0000 000000
2017-01-10 10:34:38,0.17,7.83,0.00,22.29,26.42,29.94,14.62,50.14,1020.52,2030.00,1622.75,1654.74,1847.13,599.56,599.49,40.32,0000 0000 0000 0000 000000
2017-01-10 10:39:39,0.13,7.84,0.00,22.31,26.42,29.94,14.68,50.07,1020.55,2030.00,1621.55,1654.00,1846.19,599.98,599.74,40.37,0000 0000 0000 0000 000000
2017-01-10 10:44:40,0.16,7.84,0.00,22.33,26.44,29.96,14.69,50.17,1020.54,2030.00,1620.38,1653.19,1845.34,600.45,600.02,40.42,0000 0000 0000 0000 000000
2017-01-10 10:49:42,0.14,7.85,0.00,22.33,26.45,29.98,14.63,50.09,1020.59,2029.99,1619.20,1652.57,1844.45,599.70,599.47,40.47,0000 0000 0000 0000 000000
2017-01-10 10:54:43,0.15,7.86,0.00,22.33,26.46,29.95,14.63,50.11,1020.58,2029.99,1617.82,1651.83,1843.53,599.96,599.63,40.52,0000 0000 0000 0000 000000
2017-01-10 10:59:44,0.16,7.87,0.00,22.35,26.47,29.94,14.70,50.17,1020.64,2029.98,1616.56,1651.04,1842.56,600.10,599.91,40.57,0000 0000 0000 0000 000000
2017-01-10 11:04:45,0.15,7.87,0.00,22.34,26.47,29.97,14.54,50.14,1020.71,2029.98,1615.35,1650.22,1841.66,599.61,599.38,40.62,0000 0000 0000 0000 000000
2017-01-10 11:09:47,0.14,7.88,0.00,22.35,26.49,29.96,14.61,50.17,1020.79,2029.96,1614.10,1649.57,1840.79,599.90,599.63,40.67,0000 0000 0000 0000 000000
2017-01-10 11:14:49,0.13,7.89,0.00,22.35,26.50,29.93,14.66,50.22,1021.00,2029.97,1612.85,1648.87,1839.90,599.91,599.66,40.72,0000 0000 0000 0000 000000
2017-01-10 11:19:50,0.16,7.90,0.00,22.35,26.50,29.98,14.65,50.17,1021.01,2029.93,1611.60,1648.05,1838.99,599.98,599.93,40.77,0000 0000 0000 0000 000000
2017-01-10 11:24:51,0.15,7.90,0.00,22.35,26.51,29.94,14.67,50.18,1021.03,2029.88,1610.38,1647.36,1838.09,599.69,599.71,40.82,0000 0000 0000 0000 000000
2017-01-10 11:29:52,0.12,7.91,0.00,22.37,26.52,29.90,14.69,50.27,1021.04,2029.86,1609.21,1646.68,1837.19,600.01,599.76,40.87,0000 0000 0000 0000 000000
2017-01-10 11:34:54,0.12,7.92,0.00,22.37,26.52,29.99,14.69,50.38,1021.04,2029.70,1607.96,1645.95,1836.27,600.04,599.99,40.92,0000 0000 0000 0000 000000
2017-01-10 11:39:55,0.12,7.93,0.00,22.37,26.53,29.98,14.76,50.33,1021.18,2029.32,1606.67,1645.08,1835.38,600.13,600.11,40.97,0000 0000 0000 0000 000000
2017-01-10 11:44:56,0.16,7.94,0.00,22.40,26.55,29.89,14.61,50.23,1021.45,2029.24,1605.39,1644.32,1834.38,599.78,599.88,41.02,0000 0000 0000 0000 000000
2017-01-10 11:49:58,0.13,7.94,0.00,22.40,26.55,30.02,14.77,50.30,1021.50,2029.16,1604.28,1643.71,1833.55,600.05,600.13,41.07,0000 0000 0000 0000 000000
2017-01-10 11:54:59,0.10,7.95,0.00,22.40,26.56,29.97,14.65,50.11,1021.53,2029.11,1603.15,1643.02,1832.74,599.89,600.11,41.12,0000 0000 0000 0000 000000
2017-01-10 12:00:00,0.17,7.95,0.00,22.42,26.57,29.99,14.55,50.17,1021.79,2029.09,1601.90,1642.27,1831.76,599.51,599.77,41.18,0000 0000 0000 0000 000000
2017-01-10 12:05:01,0.15,7.96,0.00,22.42,26.57,29.98,14.60,50.22,1021.96,2029.05,1600.72,1641.51,1830.93,599.95,600.32,41.23,0000 0000 0000 0000 000000
2017-01-10 12:10:03,0.12,7.97,0.00,22.42,26.57,30.00,14.68,50.35,1021.99,2029.02,1599.55,1640.88,1830.01,599.81,600.11,41.28,0000 0000 0000 0000 000000
2017-01-10 12:15:04,0.15,7.98,0.00,22.42,26.57,30.02,14.67,50.14,1021.99,2029.02,1598.52,1640.06,1829.11,600.06,600.34,41.33,0000 0000 0000 0000 000000
2017-01-10 12:20:05,0.16,7.98,0.00,22.45,26.60,30.06,14.76,50.09,1022.01,2029.00,1597.35,1639.39,1828.24,600.19,600.55,41.38,0000 0000 0000 0000 000000
2017-01-10 12:25:07,0.12,7.99,0.00,22.48,26.60,30.06,14.65,49.87,1022.31,2029.00,1596.19,1638.79,1827.43,600.01,600.42,41.43,0000 0000 0000 0000 000000
2017-01-10 12:30:08,0.13,8.00,0.00,22.49,26.61,29.82,14.66,49.86,1022.41,2029.00,1595.04,1638.05,1826.60,599.90,600.32,41.48,0000 0000 0000 0000 000000
2017-01-10 12:35:09,0.15,8.01,0.00,22.51,26.62,30.11,14.61,49.80,1022.44,2029.00,1593.90,1637.35,1825.81,599.73,600.08,41.53,0000 0000 0000 0000 000000
2017-01-10 12:40:11,0.15,8.01,0.00,22.54,26.62,30.15,14.67,49.91,1022.44,2029.00,1592.79,1636.67,1824.86,600.31,600.69,41.58,0000 0000 0000 0000 000000
2017-01-10 12:45:12,0.12,8.02,0.00,22.55,26.65,30.18,14.69,49.87,1022.44,2029.00,1591.69,1635.99,1824.01,599.98,600.36,41.63,0000 0000 0000 0000 000000
2017-01-10 12:50:13,0.16,8.03,0.00,22.57,26.65,30.19,14.62,49.94,1022.46,2029.00,1590.63,1635.18,1823.13,599.98,600.39,41.68,0000 0000 0000 0000 000000
2017-01-10 12:55:14,0.14,8.03,0.00,22.60,26.66,30.21,14.69,49.94,1022.47,2028.98,1589.54,1634.65,1822.25,599.97,600.24,41.73,0000 0000 0000 0000 000000